Location: Unspecified
(0.0000°N, 0.0000°E)
Time: 07:32:02
(UTC+00:00)

Vanguard 2 Rocket - Pass Details

Date: 11 December 2017
Orbit: 556 x 3326 km, 32.9° (Epoch: 15 January)

Event Time Altitude Azimuth Distance (km) Brightness Sun altitude
Rises 15:46:57 0° 229° (SW) 3,298 10.9 28.8°
Reaches altitude 10° 15:48:58 10° 226° (SW) 2,566 10.7 28.4°
Maximum altitude 15:55:05 71° 142° (SE) 1,324 8.1 27.0°
Drops below altitude 10° 16:06:07 10° 60° (ENE) 4,469 9.9 24.5°
Sets 16:10:44 0° 58° (ENE) 5,927 10.5 23.5°
